"Time","Temp","Dewpoint","Humidity","Pressure","Direction","Speed","Gust","Precip","PrecipRate"
"00:04:56","75.2","71.7","89","29.87","242","1.2","2.3","0.00","0.00"
"00:09:59","75.2","71.6","88.7","29.87","242","1.2","2.3","0.00","0.00"
"00:14:57","75.3","71.6","88.3","29.88","242","1.2","2.3","0.00","0.00"
"00:19:59","75.2","71.4","88","29.88","242","0.4","2.3","0.00","0.00"
"00:24:57","75.2","71.4","88","29.88","242","0","0","0.00","0.00"
"00:29:58","75.1","71.3","88.1","29.89","242","0","0","0.00","0.00"
"00:34:56","75.1","71.5","88.6","29.89","242","0","0","0.00","0.00"
"00:39:59","75","71.4","88.8","29.89","242","0","0","0.00","0.00"
"00:44:57","74.9","71.4","89","29.89","242","0","0","0.00","0.00"
"00:49:59","74.8","71.7","89.8","29.89","242","0","0","0.00","0.00"
"00:54:57","74.9","71.8","90","29.89","242","0","0","0.00","0.00"
"00:59:59","74.9","71.8","90","29.89","242","0","0","0.00","0.00"
"01:04:56","75","71.8","89.9","29.89","242","0","0","0.00","0.00"
"01:09:58","74.9","71.4","89","29.89","242","0","0","0.00","0.00"
"01:14:57","74.9","71.4","89","29.89","242","0","0","0.00","0.00"
"01:19:59","74.8","71.3","88.9","29.89","242","0","0","0.00","0.00"
"01:24:58","74.7","71.2","89","29.89","242","0","0","0.00","0.00"
"01:29:56","74.6","71.1","89","29.89","242","0","0","0.00","0.00"
"01:34:58","74.4","70.9","89","29.89","242","0","0","0.00","0.00"
"01:39:57","74.2","70.7","89","29.89","242","0","0","0.00","0.00"
"01:44:58","74.2","70.7","89","29.89","242","0","0","0.00","0.00"
"01:49:57","74.1","70.9","89.7","29.89","242","0","0","0.00","0.00"
"01:54:59","74.1","71","90","29.89","242","0","0","0.00","0.00"
"01:59:57","74.1","70.7","89.3","29.89","242","0.8","2.3","0.00","0.00"
"02:04:58","74.2","70.7","89.2","29.89","242","0.4","2.3","0.00","0.00"
"02:09:56","74.2","70.7","89","29.89","242","0.7","2.3","0.00","0.00"
"02:14:59","74.2","70.5","88.2","29.89","242","0.2","2.3","0.00","0.00"
"02:19:56","74.3","70.5","88","29.89","242","0.6","2.3","0.00","0.00"
"02:24:58","74.2","70.4","88","29.89","242","0.4","2.3","0.00","0.00"
"02:29:56","74.2","70.4","88","29.89","242","0.2","1.2","0.00","0.00"
"02:34:58","74","70.2","88","29.89","242","0.1","1.2","0.00","0.00"
"02:39:58","73.9","70.1","88","29.89","242","0.7","2.3","0.00","0.00"
"02:44:59","73.9","70.1","88","29.89","242","0.5","2.3","0.00","0.00"
"02:49:57","73.8","70.1","88.4","29.89","242","0.3","2.3","0.00","0.00"
"02:54:56","73.7","70.3","89","29.89","242","0.4","3","0.00","0.00"
"02:59:58","73.5","70.1","89","29.89","242","0.4","3.5","0.00","0.00"
"03:04:56","73.4","70","89","29.89","242","0.2","1.2","0.00","0.00"
"03:09:58","73.2","69.8","89","29.89","242","0.7","2.3","0.00","0.00"
"03:14:57","73.1","69.8","89.1","29.90","242","0.1","1.2","0.00","0.00"
"03:19:59","73","69.9","90","29.90","242","0.4","2.3","0.00","0.00"
"03:24:57","72.9","69.8","90","29.90","242","0.1","1.2","0.00","0.00"
"03:29:59","72.7","69.6","90","29.90","242","0.1","1.2","0.00","0.00"
"03:34:57","72.6","69.5","90","29.89","242","0","1.2","0.00","0.00"
"03:39:56","72.6","69.5","90","29.89","242","0","0","0.00","0.00"
"03:44:58","72.6","69.5","90","29.89","242","0","0","0.00","0.00"
"03:49:56","72.5","69.4","90","29.89","242","0","0","0.00","0.00"
"03:54:57","72.4","69.3","90","29.89","242","0","0","0.00","0.00"
"03:59:59","72.3","69.2","90","29.89","242","0","0","0.00","0.00"
"04:04:57","72","69.1","90.7","29.89","242","0","0","0.00","0.00"
"04:09:59","71.8","69","91","29.89","242","0","0","0.00","0.00"
"04:14:57","71.7","68.9","91","29.89","242","0","0","0.00","0.00"
"04:19:59","71.6","69","91.5","29.88","242","0","0","0.00","0.00"
"04:24:57","71.5","69.1","92","29.88","242","0","0","0.00","0.00"
"04:29:59","71.5","69.1","92","29.89","242","0","0","0.00","0.00"
"04:34:57","71.4","69","92","29.89","242","0","0","0.00","0.00"
"04:39:56","71.3","68.9","92","29.89","242","0","0","0.00","0.00"
"04:44:58","71.2","68.8","92","29.89","242","0","0","0.00","0.00"
"04:49:56","71","68.6","92","29.89","242","0","0","0.00","0.00"
"04:54:58","70.9","68.7","92.7","29.89","242","0","0","0.00","0.00"
"04:59:56","70.7","68.6","93","29.90","242","0","0","0.00","0.00"
"05:04:57","70.6","68.5","93","29.90","242","0","0","0.00","0.00"
"05:09:58","70.6","68.7","93.6","29.90","242","0","0","0.00","0.00"
"05:14:58","70.7","68.9","94","29.90","242","0","0","0.00","0.00"
"05:19:59","70.7","68.9","94","29.89","242","0","0","0.00","0.00"
"05:24:58","70.7","68.9","94","29.89","242","0.2","2.3","0.00","0.00"
"05:29:59","70.8","69","94","29.89","242","0.4","2.3","0.00","0.00"
"05:34:57","70.8","69","94","29.89","241","0","1.2","0.00","0.00"
"05:39:56","70.8","69","94","29.89","241","0.2","1.2","0.00","0.00"
"05:44:59","70.9","69.1","94","29.90","241","0.3","2.3","0.00","0.00"
"05:49:57","71","69.2","94","29.90","241","0","0","0.00","0.00"
"05:54:59","71.1","69.3","94","29.90","241","0","1.2","0.00","0.00"
"05:59:58","71.2","69.4","94","29.90","241","0.4","2.3","0.00","0.00"
"06:04:59","71.3","69.4","93.7","29.90","241","0.3","2","0.00","0.00"
"06:09:58","71.3","69.2","93","29.90","241","0.3","2.3","0.00","0.00"
"06:14:57","71.4","69.2","92.6","29.90","241","0.6","3.5","0.00","0.00"
"06:19:59","71.6","69.2","92","29.90","242","0.5","2.3","0.00","0.00"
"06:24:57","71.8","69","91.1","29.90","242","1","2.3","0.00","0.00"
"06:29:58","71.9","69.1","91","29.91","242","0.4","1.2","0.00","0.00"
"06:34:56","71.9","69.1","91","29.91","242","0.1","1.2","0.00","0.00"
"06:39:59","71.9","69.1","91","29.91","242","0.4","2.3","0.00","0.00"
"06:44:56","72","69.2","91","29.91","242","1.2","3.5","0.00","0.00"
"06:49:58","72.2","69.4","91","29.91","241","1.1","3.5","0.00","0.00"
"06:54:59","72.4","69.4","90.1","29.91","242","0.2","3","0.00","0.00"
"06:59:57","72.6","69.5","90","29.91","242","0.7","4","0.00","0.00"
"07:04:58","72.7","69.6","90","29.91","314","0.3","3.5","0.00","0.00"
"07:09:56","72.8","69.6","89.7","29.91","314","0","0","0.00","0.00"
"07:14:59","73","69.5","88.7","29.91","314","0.3","3.5","0.00","0.00"
"07:19:57","73.3","69.6","88.2","29.91","306","1.1","3.5","0.00","0.00"
"07:24:58","73.8","69.8","87.3","29.91","270","1","4","0.00","0.00"
"07:29:57","74.6","69.9","85.4","29.92","326","1.3","5","0.00","0.00"
"07:34:59","75.4","69.9","83.1","29.92","322","1.3","4","0.00","0.00"
"07:39:57","76.1","70","81.5","29.92","300","1.6","5","0.00","0.00"
"07:44:59","76.4","70.4","81.7","29.92","253","1.1","3.5","0.00","0.00"
"07:49:56","76.6","70.4","81.2","29.91","273","0","2.3","0.00","0.00"
"07:54:58","76.9","70.4","80.4","29.91","272","0.6","3.5","0.00","0.00"
"07:59:57","77.1","70.6","80.3","29.91","272","0.6","3.5","0.00","0.00"
"08:04:58","77.4","70.7","80.1","29.91","272","0.5","3.5","0.00","0.00"
"08:09:59","77.7","70.7","79.1","29.91","271","1.3","4","0.00","0.00"
"08:14:58","78.1","71.1","79.2","29.91","270","1","3.5","0.00","0.00"
"08:19:56","78.6","71.3","78.2","29.90","326","1.3","4","0.00","0.00"
"08:24:59","79.3","71.6","77.4","29.90","330","1.9","6","0.00","0.00"
"08:29:58","79.8","71.9","76.9","29.91","326","1","4","0.00","0.00"
"08:34:56","80.2","71.9","75.8","29.91","340","2.1","6","0.00","0.00"
"08:39:56","80.7","72.3","75.6","29.91","310","1.2","3.5","0.00","0.00"
"08:44:59","81","71.9","73.9","29.92","321","2.3","7","0.00","0.00"
"08:49:57","81.2","72.1","73.9","29.92","279","1.5","6.9","0.00","0.00"
"08:54:56","81.4","72.2","73.9","29.92","292","1.9","4","0.00","0.00"
"08:59:56","81.7","72.6","74.1","29.92","288","1.4","4","0.00","0.00"
"09:04:58","82.1","72.6","73","29.91","213","2","5","0.00","0.00"
"09:09:57","82.5","73","72.9","29.91","221","1.5","5","0.00","0.00"
"09:14:57","82.7","72.5","71.6","29.91","294","1.3","3.5","0.00","0.00"
"09:19:56","82.9","72.7","71.5","29.90","293","0.8","3.5","0.00","0.00"
"09:24:58","83.4","73.5","72.1","29.90","190","2.4","4","0.00","0.00"
"09:29:57","83.8","73","70.2","29.90","208","2.4","6","0.00","0.00"
"09:34:56","84.1","73.1","69.6","29.90","223","1.7","3.5","0.00","0.00"
"09:39:56","84.5","74","70.9","29.90","218","1.8","4","0.00","0.00"
"09:44:58","84.8","74.4","71","29.90","208","1","3.5","0.00","0.00"
"09:49:57","85","73.7","69.1","29.90","293","2.2","7","0.00","0.00"
"09:54:56","84.9","73.2","68","29.90","263","2.3","4","0.00","0.00"
"09:59:59","84.8","72.7","67.3","29.90","321","1.7","5","0.00","0.00"
"10:04:57","84.7","72","65.8","29.90","299","2","6","0.00","0.00"
"10:09:56","84.7","72.4","66.8","29.90","312","1.9","7","0.00","0.00"
"10:14:56","84.9","72.5","66.5","29.90","286","2.6","6.9","0.00","0.00"
"10:19:59","84.6","72.6","67.4","29.90","254","2.4","6","0.00","0.00"
"10:24:58","84.3","72.7","68.4","29.90","219","1.7","5.8","0.00","0.00"
"10:29:57","84.1","71.9","66.8","29.90","260","2.9","7","0.00","0.00"
"10:34:59","83.9","71.8","66.8","29.90","323","2.3","7","0.00","0.00"
"10:39:58","84.2","72.7","68.6","29.90","322","1.2","3.5","0.00","0.00"
"10:44:57","84.3","72.2","67.1","29.90","319","0.8","3.5","0.00","0.00"
"10:49:56","84.1","71.6","66.2","29.90","297","1.9","5","0.00","0.00"
"10:54:59","83.7","71.8","67.4","29.90","250","0.9","5.8","0.00","0.00"
"10:59:58","83.6","71.9","68","29.90","209","0.5","2.3","0.00","0.00"
"11:04:56","83.6","72.1","68.4","29.90","269","0.8","4","0.00","0.00"
"11:09:59","83.7","72.3","68.6","29.90","340","0.9","3.5","0.00","0.00"
"11:14:59","83.8","72.5","68.9","29.91","347","0.9","2.3","0.00","0.00"
"11:19:58","83.9","72.6","69.1","29.91","346","1","3","0.00","0.00"
"11:24:57","83.8","72.3","68.5","29.91","343","1.6","4","0.00","0.00"
"11:29:59","83.6","72.1","68.6","29.91","342","1.3","4","0.00","0.00"
"11:34:58","83.4","72","68.6","29.91","297","1.9","4","0.00","0.00"
"11:39:58","83.1","71.6","68.3","29.91","324","1.7","3.5","0.00","0.00"
"11:44:57","83","72","69.5","29.91","321","1.1","4","0.00","0.00"
"11:49:56","82.8","72.2","70.6","29.91","318","0.7","3.5","0.00","0.00"
"11:54:58","82.6","72.1","70.6","29.91","317","0.2","2.3","0.00","0.00"
"11:59:58","82.5","72.3","71.4","29.91","317","0.8","2.3","0.00","0.00"
"12:04:56","82.5","72.1","71","29.91","317","0.6","3.5","0.00","0.00"
"12:09:59","82.6","72.6","71.9","29.91","317","0.4","3.5","0.00","0.00"
"12:14:58","82.8","73.6","73.8","29.91","289","1.2","3.5","0.00","0.00"
"12:19:57","83","73.1","72.2","29.91","295","1.5","4","0.00","0.00"
"12:24:56","83.2","73.1","71.7","29.91","277","2","5","0.00","0.00"
"12:29:59","83.5","73.2","71.2","29.91","328","0.9","3.5","0.00","0.00"
"12:34:58","83.8","72.9","69.6","29.91","329","1.4","5","0.00","0.00"
"12:39:58","84.2","73","69.3","29.91","332","1.2","4","0.00","0.00"
"12:44:56","84.6","73.2","68.6","29.91","340","2","4","0.00","0.00"
"12:49:59","84.9","73.8","69.4","29.91","343","1.5","4","0.00","0.00"
"12:54:58","85.3","73.6","68.3","29.91","301","1.6","5","0.00","0.00"
"12:59:56","85.8","74.7","69.7","29.92","234","1.7","4","0.00","0.00"
"13:04:59","86.2","74.7","68.8","29.92","212","1.9","6","0.00","0.00"
"13:09:58","86.4","74.3","67.4","29.92","210","2.6","6","0.00","0.00"
"13:14:58","86.4","74.6","68.1","29.92","237","2.8","6","0.00","0.00"
"13:19:57","86.4","74.3","67.4","29.92","265","1.5","4","0.00","0.00"
"13:24:56","86.6","74.1","66.6","29.92","301","2.3","5","0.00","0.00"
"13:29:59","86.8","75.1","68.3","29.92","241","1.2","3.5","0.00","0.00"
"13:34:57","87.1","75.1","67.6","29.92","225","2.2","5","0.00","0.00"
"13:39:57","87.2","74.4","65.9","29.92","319","2.5","7","0.00","0.00"
"13:44:56","87.5","75.7","68.3","29.92","243","2.7","6","0.00","0.00"
"13:49:58","88.2","76.1","67.5","29.92","227","3.2","7","0.00","0.00"
"13:54:57","88.6","76","66.6","29.92","218","2.7","7","0.00","0.00"
"13:59:56","89","75.5","64.5","29.92","241","3","7","0.00","0.00"
"14:04:58","89.6","76.8","66.3","29.92","218","3.4","9.2","0.00","0.00"
"14:09:57","90.1","76.4","64.2","29.92","239","2.9","5","0.00","0.00"
"14:14:57","90.2","75.7","62.7","29.92","205","3.6","10.4","0.00","0.00"
"14:19:59","90.1","75.2","62","29.91","275","2.4","7","0.00","0.00"
"14:24:58","90.3","75.3","61.5","29.91","259","3.2","13","0.00","0.00"
"14:29:57","90.1","73.5","58.5","29.91","256","3.8","12.7","0.00","0.00"
"14:34:57","89.8","75.3","62.6","29.91","252","2.4","6","0.00","0.00"
"14:39:57","89.9","75.1","62.1","29.91","194","2.5","7","0.00","0.00"
"14:44:59","90.1","75.2","61.8","29.91","190","4.3","9.2","0.00","0.00"
"14:49:59","90","75.6","62.8","29.91","186","3.9","11","0.00","0.00"
"14:54:58","89.7","76.4","65.2","29.91","196","2.5","5.8","0.00","0.00"
"14:59:57","89.8","76.3","64.7","29.91","198","2.3","4.6","0.00","0.00"
"15:04:59","90.2","74.6","60.5","29.90","293","3","10","0.00","0.00"
"15:09:58","90.2","73.8","58.7","29.90","318","3.4","10.4","0.00","0.00"
"15:14:58","90.2","74.4","60.1","29.90","285","2.8","5.8","0.00","0.00"
"15:19:56","89.9","75.3","62.2","29.90","257","1.4","3.5","0.00","0.00"
"15:24:59","90.4","76.4","63.8","29.90","258","2.2","7","0.00","0.00"
"15:29:58","90.7","75.5","61.3","29.90","221","2.4","6.9","0.00","0.00"
"15:34:57","90.8","76","62","29.90","213","2.8","6","0.00","0.00"
"15:39:57","90.9","76","61.8","29.90","182","3.1","7","0.00","0.00"
"15:44:59","91.1","76.4","62.2","29.90","189","1.5","4","0.00","0.00"
"15:49:58","91.2","75.4","60.1","29.89","204","2.2","5","0.00","0.00"
"15:54:57","90.8","75.5","60.9","29.89","243","2.7","5","0.00","0.00"
"15:59:59","90.8","76.2","62.5","29.89","196","2.1","6","0.00","0.00"
"16:04:58","90.9","75.9","61.7","29.87","183","2.6","6","0.00","0.00"
"16:09:57","90.9","75.6","61.1","29.87","187","2.8","7","0.00","0.00"
"16:14:57","90.9","75.6","61.1","29.87","184","2.1","7","0.00","0.00"
"16:19:56","91.1","76","61.4","29.87","187","3.5","7","0.00","0.00"
"16:24:59","91.1","75.1","59.6","29.87","182","1.4","4","0.00","0.00"
"16:29:58","91.3","76","60.9","29.87","186","2.3","7","0.00","0.00"
"16:34:56","91.6","75.8","60.1","29.86","191","3","6.9","0.00","0.00"
"16:39:59","91.8","76.1","60.4","29.86","198","1.9","5","0.00","0.00"
"16:44:58","92","76.1","60","29.86","217","1.9","4.6","0.00","0.00"
"16:49:57","92","76.1","59.9","29.85","220","2.4","5","0.00","0.00"
"16:54:59","92","75.4","58.5","29.85","182","2.3","5","0.00","0.00"
"16:59:58","92.2","75.9","59.2","29.86","210","2","5","0.00","0.00"
"17:04:56","92.2","75","57.5","29.86","199","2.8","7","0.00","0.00"
"17:09:59","92","75.2","58.3","29.86","3","2","7","0.00","0.00"
"17:14:59","91.8","75","58.2","29.86","245","2.4","6.9","0.00","0.00"
"17:19:57","91.7","74.2","56.9","29.86","309","2.5","6","0.00","0.00"
"17:24:56","91.6","74.3","57.2","29.86","338","1.8","6","0.00","0.00"
"17:29:59","91.7","74.6","57.6","29.86","337","2","4","0.00","0.00"
"17:34:58","91.7","75.3","59","29.86","292","1.9","4","0.00","0.00"
"17:39:58","91.7","75","58.4","29.86","319","1.7","5","0.00","0.00"
"17:44:56","91.4","74.8","58.5","29.86","209","1","4","0.00","0.00"
"17:49:59","90.9","74.7","59.2","29.86","207","1","3.5","0.00","0.00"
"17:54:58","90.5","75.1","60.9","29.86","192","1.8","5","0.00","0.00"
"17:59:57","90.3","75.6","62.2","29.86","189","1.4","5","0.00","0.00"
"18:04:59","90.3","75.8","62.7","29.85","189","2.6","4","0.00","0.00"
"18:09:58","90.2","75.4","62.2","29.85","189","2","4","0.00","0.00"
"18:14:58","89.9","74.7","61.3","29.86","184","2.7","5","0.00","0.00"
"18:19:57","89.6","75.1","62.6","29.86","183","2.1","4","0.00","0.00"
"18:24:59","89.4","75.1","63","29.86","155","1.5","4","0.00","0.00"
"18:29:58","89.2","76.1","65.5","29.86","161","1.8","4","0.00","0.00"
"18:34:57","89","76.6","67","29.86","168","1.7","4","0.00","0.00"
"18:39:56","88.6","75.8","66","29.86","192","1.5","4","0.00","0.00"
"18:44:59","88.5","75.8","66.4","29.87","193","2","5","0.00","0.00"
"18:49:57","88.4","76.3","67.5","29.87","193","1.6","3.5","0.00","0.00"
"18:54:56","88.3","76","67.3","29.87","192","2.2","4","0.00","0.00"
"18:59:59","88.1","76.2","68.1","29.87","192","2.3","4","0.00","0.00"
"19:04:57","87.9","76.3","68.7","29.87","192","1.1","4","0.00","0.00"
"19:09:56","87.7","76.4","69.5","29.87","192","1.6","3.5","0.00","0.00"
"19:14:56","87.4","76.3","69.6","29.87","197","2.3","5","0.00","0.00"
"19:19:58","87.1","76.1","70","29.87","186","2.8","5","0.00","0.00"
"19:24:57","86.8","76.3","70.9","29.87","187","3.2","6","0.00","0.00"
"19:29:55","86.6","76.2","71.4","29.87","222","2.6","5","0.00","0.00"
"19:34:58","86.3","76.3","72.2","29.87","234","1.8","5","0.00","0.00"
"19:39:58","86.1","76.3","72.7","29.87","224","2","4","0.00","0.00"
"19:44:56","85.9","76.2","73","29.87","172","1.6","3.5","0.00","0.00"
"19:49:59","85.8","76.3","73.5","29.87","162","1.4","3.5","0.00","0.00"
"19:54:57","85.7","76.2","73.5","29.87","168","1.6","4","0.00","0.00"
"19:59:56","85.5","76.1","73.5","29.87","171","1.2","3.5","0.00","0.00"
"20:04:58","85.4","76.1","73.8","29.87","171","1","3.5","0.00","0.00"
"20:09:58","85.2","76.1","74.2","29.87","172","0.8","2.3","0.00","0.00"
"20:14:58","85","76.2","74.8","29.87","193","0.2","2.3","0.00","0.00"
"20:19:57","84.9","76.1","75","29.86","221","0.3","2.3","0.00","0.00"
"20:24:56","84.7","75.9","75","29.86","221","0.2","2.3","0.00","0.00"
"20:29:59","84.5","75.7","75","29.87","221","0.8","2.3","0.00","0.00"
"20:34:58","84.4","75.6","75","29.87","221","0.2","2.3","0.00","0.00"
"20:39:59","84.3","75.9","75.9","29.87","221","0.4","1.2","0.00","0.00"
"20:44:58","84","76","77","29.87","221","0","1.2","0.00","0.00"
"20:49:57","83.6","75.6","77.2","29.87","221","0","0","0.00","0.00"
"20:54:56","83.2","75.8","78.5","29.87","221","0","0","0.00","0.00"
"20:59:59","82.9","75.7","79","29.87","221","0.1","1.2","0.00","0.00"
"21:04:58","82.5","75.7","79.9","29.87","221","0","0","0.00","0.00"
"21:09:57","82.1","75.7","80.9","29.87","221","0","0","0.00","0.00"
"21:14:57","81.9","75.3","80.5","29.88","221","0","0","0.00","0.00"
"21:19:56","81.8","75.6","81.5","29.88","221","0","0","0.00","0.00"
"21:24:59","81.9","75.7","81.5","29.88","221","0","1.2","0.00","0.00"
"21:29:58","81.8","75.8","82","29.88","221","0","0","0.00","0.00"
"21:34:57","81.8","75.7","81.9","29.88","221","0.4","3.5","0.00","0.00"
"21:39:57","81.6","75.4","81.5","29.88","249","1.3","3.5","0.00","0.00"
"21:44:56","81.6","75.2","81","29.89","313","0.8","3.5","0.00","0.00"
"21:49:59","81.5","74.8","80.3","29.89","312","0.6","2.3","0.00","0.00"
"21:54:58","81.4","74.6","80","29.89","312","1.2","4","0.00","0.00"
"21:59:57","81.2","74.4","80","29.89","314","0.7","3.5","0.00","0.00"
"22:04:59","81","74.2","80","29.89","317","0.1","3","0.00","0.00"
"22:09:58","80.7","74","80","29.89","316","0.4","3.5","0.00","0.00"
"22:14:58","80.4","73.7","80.1","29.90","317","0.8","2.3","0.00","0.00"
"22:19:57","80.1","73.7","81","29.90","319","0.3","2","0.00","0.00"
"22:24:56","79.7","73.5","81.3","29.90","319","0.3","2.3","0.00","0.00"
"22:29:59","79.5","73.5","82.2","29.90","319","0","2.3","0.00","0.00"
"22:34:58","79.3","73.7","83","29.90","319","0","1.2","0.00","0.00"
"22:39:58","79.2","73.6","83.3","29.90","319","0.3","2.3","0.00","0.00"
"22:44:57","79","73.7","84","29.90","318","0.1","2.3","0.00","0.00"
"22:49:56","78.9","73.7","84","29.90","318","0.1","1.2","0.00","0.00"
"22:54:59","78.8","73.8","84.7","29.90","320","0.3","3.5","0.00","0.00"
"22:59:57","78.8","73.9","85","29.90","321","0.2","2.3","0.00","0.00"
"23:04:59","78.7","73.8","85","29.90","321","0.3","1.2","0.00","0.00"
"23:09:57","78.7","73.5","84","29.90","322","0.1","1.2","0.00","0.00"
"23:14:56","78.6","73.4","84","29.90","322","0","1.2","0.00","0.00"
"23:19:57","78.5","73.3","84","29.89","322","0","0","0.00","0.00"
"23:24:56","78.5","73.3","84","29.89","322","0","0","0.00","0.00"
"23:29:57","78.4","73.2","84","29.90","321","0.1","1.2","0.00","0.00"
"23:34:59","78.2","73","84","29.90","321","0.2","1.2","0.00","0.00"
"23:39:59","78.1","73","84.3","29.90","321","0.9","3.5","0.00","0.00"
"23:44:57","77.9","73","85","29.90","321","0.5","2.3","0.00","0.00"
"23:49:59","77.8","72.9","85","29.90","321","0","1","0.00","0.00"
"23:54:57","77.7","72.8","85","29.90","321","0","1.2","0.00","0.00"
"23:59:58","77.6","72.9","85.6","29.90","321","0.1","1.2","0.00","0.00"
